DL8JF-13 Weather Reports


time (UTC)temp
C
wind
direction
speed
KPH
gust
KPH
rain 1hr
cm
rain 24hr
cm
rain mn
cm
humidity
%
barometer
mb
20260505110349 11 0 0.0 0.0 0.00 0.13 0.00 97 1005.0
20260505101852 11 0 0.0 0.0 0.00 0.13 0.00 97 1005.4
20260505100352 10 0 0.0 0.0 0.00 0.13 0.00 97 1005.4
20260505094852 10 0 0.0 0.0 0.00 0.13 0.00 97 1005.4
20260505093349 10 0 0.0 0.0 0.00 0.13 0.00 97 1005.5
20260505091849 10 0 0.0 0.0 0.00 0.13 0.00 97 1005.6
20260505090352 10 0 0.0 0.0 0.00 0.13 0.00 97 1005.6
20260505084849 10 0 0.0 0.0 0.00 0.13 0.00 98 1005.2
20260505083353 10 0 0.0 0.0 0.00 0.13 0.00 98 1005.1
20260505081849 10 0 0.0 0.0 0.00 0.13 0.00 98 1005.1
20260505080352 10 0 0.0 0.0 0.00 0.13 0.00 98 1005.1
20260505074849 10 0 0.0 0.0 0.00 0.13 0.00 98 1004.9
20260505073349 10 0 0.0 0.0 0.00 0.13 0.00 98 1005.0
20260505071849 9 0 0.0 0.0 0.00 0.13 0.00 97 1005.1
20260505070352 9 0 0.0 0.0 0.00 0.13 0.00 97 1005.1
20260505064849 9 0 0.0 0.0 0.00 0.13 0.00 97 1005.0
20260505063352 9 0 0.0 0.0 0.00 0.13 0.00 97 1005.3
20260505061849 9 0 0.0 0.0 0.00 0.13 0.00 97 1005.2
20260505060349 9 0 0.0 0.0 0.00 0.13 0.00 96 1005.2
20260505054849 9 0 0.0 0.0 0.00 0.13 0.00 96 1005.1
20260505053352 9 0 0.0 0.0 0.00 0.13 0.00 95 1005.2
20260505051849 9 0 0.0 0.0 0.00 0.13 0.00 94 1005.2
20260505050349 9 0 0.0 0.0 0.00 0.13 0.00 93 1005.2
20260505040349 9 0 0.0 0.0 0.05 0.13 0.00 86 1005.4
20260505034852 9 0 0.0 0.0 0.13 0.13 0.00 86 1005.2
20260505033349 9 0 0.0 0.0 0.05 0.05 0.00 85 1005.4
20260505031852 9 0 0.0 0.0 0.05 0.05 0.00 84 1005.0
20260505030352 10 0 0.0 0.0 0.05 0.05 0.00 83 1005.0
20260505024849 10 0 0.0 0.0 0.00 0.00 0.00 82 1004.9
20260505023349 10 0 0.0 0.0 0.00 0.00 0.00 81 1005.7
20260505021852 10 0 0.0 0.0 0.00 0.00 0.00 81 1005.6
20260505020352 10 0 0.0 0.0 0.00 0.00 0.00 79 1005.6
20260505014852 10 0 0.0 0.0 0.00 0.00 0.00 79 1005.6
20260505013352 10 0 0.0 0.0 0.00 0.00 0.00 77 1005.7
20260505011852 11 0 0.0 0.0 0.00 0.00 0.00 76 1005.9
20260505010352 11 0 0.0 0.0 0.00 0.00 0.00 75 1005.9
20260505004852 11 0 0.0 0.0 0.00 0.00 0.00 74 1006.2
20260505003352 11 0 0.0 0.0 0.00 0.00 0.00 75 1006.1
20260505001852 11 0 0.0 0.0 0.00 0.00 0.00 74 1006.3
20260505000352 11 0 0.0 0.0 0.00 0.00 0.00 74 1006.3
20260504234849 11 0 0.0 0.0 0.00 0.00 0.00 73 1006.4
20260504233352 11 0 0.0 0.0 0.00 0.00 0.00 73 1006.5
20260504231849 11 0 0.0 0.0 0.00 0.00 0.00 73 1006.8
20260504230349 12 0 0.0 0.0 0.00 0.00 0.00 72 1006.8
20260504224852 12 0 0.0 0.0 0.00 0.00 0.00 73 1006.7
20260504223352 12 0 0.0 0.0 0.00 0.00 0.00 72 1007.0
20260504221849 12 0 0.0 0.0 0.00 0.00 0.00 72 1007.0
20260504220352 12 0 0.0 0.0 0.00 0.00 0.00 71 1007.0
20260504214852 12 0 0.0 0.0 0.00 0.00 0.00 71 1007.0
20260504213349 12 0 0.0 0.0 0.00 0.00 0.00 72 1006.9
20260504211849 12 0 0.0 0.0 0.00 0.00 0.00 71 1006.9
20260504210352 12 0 0.0 0.0 0.00 0.00 0.00 70 1006.9
20260504204849 13 0 0.0 0.0 0.00 0.00 0.00 69 1007.2
20260504203349 13 0 0.0 0.0 0.00 0.00 0.00 68 1007.0
20260504201849 13 0 0.0 0.0 0.00 0.00 0.00 67 1006.7
20260504200349 14 0 0.0 0.0 0.00 0.00 0.00 66 1006.7
20260504194848 14 0 0.0 0.0 0.00 0.00 0.00 65 1006.7
20260504193351 15 0 0.0 0.0 0.00 0.00 0.00 64 1006.7
20260504191852 15 0 0.0 0.0 0.00 0.00 0.00 63 1006.7
20260504190348 15 0 0.0 0.0 0.00 0.00 0.00 63 1006.7
20260504184851 16 0 0.0 0.0 0.00 0.00 0.00 61 1006.6
20260504183352 16 0 0.0 0.0 0.00 0.00 0.00 60 1006.5
20260504181849 16 0 0.0 0.0 0.00 0.00 0.00 59 1006.3
20260504180352 16 0 0.0 0.0 0.00 0.00 0.00 59 1006.3
20260504174851 17 0 0.0 0.0 0.00 0.00 0.00 58 1006.4
20260504173352 17 0 0.0 0.0 0.00 0.00 0.00 58 1006.5
20260504171848 17 0 0.0 0.0 0.00 0.00 0.00 57 1006.2
20260504170348 17 0 0.0 0.0 0.00 0.00 0.00 56 1006.2
20260504160351 18 0 0.0 0.0 0.00 0.00 0.00 55 1006.3
20260504150352 18 0 0.0 0.0 0.00 0.00 0.00 55 1006.8
20260504140351 18 0 0.0 0.0 0.00 0.00 0.00 57 1007.1
20260504130351 18 0 0.0 0.0 0.00 0.00 0.00 57 1007.1